Terminal Aerodrome Forecast
Issued by NWS Duluth, MN

Home | Current Version | Previous Version | Text Only | Print | Product List | Glossary On
Versions: 1 2 3 4 5 6 7 8 9 10 11 12 13 14 15 16 17 18 19 20 21 22 23 24 25 26 27 28 29 30 31 32 33 34 35 36 37 38 39 40 41 42 43 44 45 46
000
FTUS43 KDLH 250600 AAC
TAFDLH
TAF AMD
KDLH 250659Z 2507/2606 22008KT 4SM BR SCT001 BKN100
      TEMPO 2507/2510 6SM BR
     FM251000 23006KT 4SM BR SCT010
     FM251300 23008KT P6SM SCT050
     FM251600 24015G21KT P6SM SCT030
     FM260000 28010KT P6SM SKC=

USA.gov is the U.S. government's official web portal to all federal, state and local government web resources and services.